Regional Weather Roundup
Issued by NWS

Home | Current Version | Previous Version | Text Only | Print | Product List | Glossary Off
Versions: 1 2 3 4 5 6 7 8 9 10 11 12 13 14 15 16 17 18 19 20 21 22 23 24 25 26 27 28 29 30 31 32 33 34 35 36 37 38 39 40 41 42 43 44 45 46 47 48 49 50

000
ASUS43 KTOP 261208
RWRKS

WEATHER ROUNDUP FOR KANSAS
NATIONAL WEATHER SERVICE GOODLAND KS
700 AM CDT TUE JUL 26 2016

NOTE:  "FAIR" INDICATES FEW OR NO CLOUDS BELOW 12,000 FEET WITH NO
SIGNIFICANT WEATHER AND/OR OBSTRUCTIONS TO VISIBILITY.

KSZ001>006-013>018-027>032-041>047-261300-
NORTHWEST KANSAS

CITY           SKY/WX    TMP DP  RH WIND       PRES   REMARKS
GOODLAND       CLOUDY    67  65  93 S14       30.13F
6HR MIN TEMP:  66; 6HR MAX TEMP:  71;

HAYS           CLOUDY    70  61  73 SE6       30.10R
HILL CITY      FOG       64  64 100 CALM      30.10S VSB<1/4
6HR MIN TEMP:  64; 6HR MAX TEMP:  69;

RUSSELL        CLOUDY    67  67 100 E7        30.08R
6HR MIN TEMP:  65; 6HR MAX TEMP:  70;

$$

KSZ061>065-074>080-084>089-261300-
SOUTHWEST KANSAS

CITY           SKY/WX    TMP DP  RH WIND       PRES   REMARKS
DODGE CITY     FOG       68  68 100 CALM      30.10R VSB 1/4
6HR MIN TEMP:  66; 6HR MAX TEMP:  70;

ELKHART          N/A     68  66  93 S6          N/A
GARDEN CITY    CLOUDY    69  68  96 S8        30.11R FOG
6HR MIN TEMP:  67; 6HR MAX TEMP:  70;

GREAT BEND     CLOUDY    70  63  78 E3        30.09R VSB 1/4
LIBERAL        CLOUDY    72  66  83 SE7       30.11R
PRATT          CLOUDY    68  67  98 E3        30.08R FOG
6HR MIN TEMP:  66; 6HR MAX TEMP:  69;

$$

KSZ066>073-081>083-090>101-261300-
SOUTHEAST KANSAS

CITY           SKY/WX    TMP DP  RH WIND       PRES   REMARKS
CHANUTE        CLOUDY    74  72  93 NE7       30.03S
6HR MIN TEMP:  74; 6HR MAX TEMP:  76;

COFFEYVILLE    CLOUDY    75  73  93 NE6       30.00S
6HR MIN TEMP:  75; 6HR MAX TEMP:  76;

HUTCHINSON     CLOUDY    71  69  93 NE6       30.07R FOG
6HR MIN TEMP:  70; 6HR MAX TEMP:  72;

MEDICINE LODGE   N/A     71  69  93 NE6       30.05R
NEWTON         MOCLDY    71  71 100 NE6       30.07S FOG
PARSONS          N/A    N/A N/A N/A MISG      30.03R
WICHITA INTL   MOCLDY    74  71  91 N8        30.04S
6HR MIN TEMP:  74; 6HR MAX TEMP:  77;

WICHITA JABRA  CLOUDY    72  71  97 NE6       30.05S FOG
6HR MIN TEMP:  70; 6HR MAX TEMP:  73;

WICHITA MCCONL MOCLDY    72  71  96 NE7       30.05R
WINFIELD       CLOUDY    76  73  91 N5        30.03S
6HR MIN TEMP:  74; 6HR MAX TEMP:  76;

$$

KSZ007>012-019>026-033>040-048>060-102>105-261300-
NORTHEAST KANSAS

CITY           SKY/WX    TMP DP  RH WIND       PRES   REMARKS
CONCORDIA      CLEAR     62  61  96 CALM      30.08S
6HR MIN TEMP:  62; 6HR MAX TEMP:  68;

EMPORIA        CLOUDY    72  70  93 NE5       30.06S FOG
6HR MIN TEMP:  71; 6HR MAX TEMP:  74;

LAWRENCE       PTCLDY    67  66  97 CALM      30.07R FOG
6HR MIN TEMP:  64; 6HR MAX TEMP:  74;

MANHATTAN      CLEAR     67  65  93 CALM      30.07R
6HR MIN TEMP:  65; 6HR MAX TEMP:  70;

MARYSVILLE     CLEAR     61  61 100 CALM      30.09S
OLATHE IND     CLEAR     68  67  96 N6        30.07S
6HR MIN TEMP:  68; 6HR MAX TEMP:  76;

OLATHE EXE     CLEAR     70  67  90 N6        30.07R
6HR MIN TEMP:  69; 6HR MAX TEMP:  75;

SALINA         CLEAR     69  67  93 CALM      30.08R
6HR MIN TEMP:  69; 6HR MAX TEMP:  74;

TOPEKA BILLARD PTCLDY    68  66  93 CALM      30.07R
6HR MIN TEMP:  65; 6HR MAX TEMP:  74;

TOPEKA FORBES  PTCLDY    69  67  93 CALM      30.07R
6HR MIN TEMP:  67; 6HR MAX TEMP:  76;

$$




USA.gov is the U.S. government's official web portal to all federal, state and local government web resources and services.